User: anonymous   Login
Location: Unspecified
(0.0000°N, 0.0000°E)
Time: 04:06:48
(UTC+00:00)
Language:

Alouette 1 - Orbit

View from above orbital plane
View from above orbital plane
View from above satellite
View from above satellite

Ground track
Ground track

The orbit data is extracted from the following two-line orbital elements,

1 00424U 62049A   17289.56152911  .00000063  00000-0  61743-4 0  9992
2 00424  80.4658 147.1514 0023440 120.9089 265.5381 13.69090037748083
Epoch (UTC): 16 October 2017 13:28:36
Eccentricity: 0.0023440
inclination: 80.4658°
perigee height: 985 km
apogee height: 1020 km
right ascension of ascending node: 147.1514°
argument of perigee: 120.9089°
revolutions per day: 13.69090037
mean anomaly at epoch: 265.5381°
orbit number at epoch: 74808

The dashed part of the orbit path shows where the satellite is in the earth's shadow,  

DLR